"Pseudo-MPEC" for P21FQyk

Created 2023 Jun 7 3:22:04 UT using Find_Orb

Click here for an explanation of pseudo-MPECs

 
 Astrometry: 
     P21FQyk* C2023 05 28O6/ff$3(AstrometryG.fC1!bK;@!5tgGrdE`redacted;b:,7*oF52
     P21FQyk  C2023 05 28WptjxuR??c@[i5!jJq?lrkV=R2^/T@3(0e#b*vclickJXo939d+2F52
     P21FQyk  C2023 05 28V#$fAV_-herennIi\*yb,^vfor1pEJ^84iKDexplanationF)eA_F52

Station data:
(F52) Pan-STARRS 2, Haleakala  (N20.707382 W156.255910)  US/Hawaii.
   Observers J. Bulger, T. Dukes, T. Lowe, A. Schultz, M. Willman. Measurers
   K. Chambers, S. Chastel, T. de Boer, L. Denneau, J. Fairlamb, H.
   Flewelling, M. Huber, C.-C. Lin, E. Magnier, Y. Ramanjooloo, R. Wainscoat,
   R. Weryk. 1.8-m Ritchey-Chrétien + CCD.

Orbital elements:  P21FQyk
   Perihelion 2023 Feb 12.76278 +/- 117 TT = 18:18:24 (JD 2459988.26278)
Epoch 2023 May 29.0 TT = JDT 2460093.5   Earth MOID: 0.0121      AutoNEOCP
M  96.93529089 +/- 100              (J2000 ecliptic)
n   0.92111224 +/- 0.529            Peri.  282.47355 +/- 46
a   1.04615092 +/- 0.401            Node   211.51871 +/- 110
e   0.1630941 +/- 0.228             Incl.    5.49146 +/- 57
P   1.07/390.82d           H 24.82  G  0.15   U 12.3  SR
q 0.87552984 +/- 0.548    Q 1.21677201 +/- 15.5
From 3 observations 2023 May 28 (55.7 min); mean residual 0".04
Residuals in arcseconds: 
230528 F52  .01+  .02+    230528 F52  .03-  .07-    230528 F52  .02+  .05+    

Ephemerides (geocentric):
Date (UTC) HH   RA             Dec           delta  r     elong  mag " sig PA
---- --------  ------------   ------------  ------ ------ -----  --- --------
2023 06 07 03  17 22 11.738   +14 20 30.00  .12343 1.1152 142.5 22.0  39d 170
2023 06 07 04  17 22 04.483   +14 20 20.91  .12352 1.1153 142.5 22.0  39d 170
2023 06 07 05  17 21 57.239   +14 20 11.70  .12362 1.1154 142.5 22.0  39d 170
2023 06 07 06  17 21 50.004   +14 20 02.37  .12372 1.1155 142.5 22.0  39d 170
2023 06 07 07  17 21 42.780   +14 19 52.91  .12382 1.1156 142.6 22.0  39d 170
2023 06 07 08  17 21 35.566   +14 19 43.34  .12392 1.1157 142.6 22.0  39d 170
2023 06 07 09  17 21 28.362   +14 19 33.65  .12401 1.1158 142.6 22.0  39d 170
2023 06 07 10  17 21 21.167   +14 19 23.85  .12411 1.1159 142.6 22.0  39d 170
2023 06 07 11  17 21 13.983   +14 19 13.92  .12421 1.1160 142.6 22.0  39d 170
2023 06 07 12  17 21 06.809   +14 19 03.88  .12431 1.1161 142.6 22.0  39d 170
2023 06 07 13  17 20 59.645   +14 18 53.71  .12440 1.1162 142.6 22.0  39d 170
2023 06 07 14  17 20 52.491   +14 18 43.43  .12450 1.1163 142.6 22.0  39d 170
2023 06 07 15  17 20 45.347   +14 18 33.03  .12460 1.1164 142.6 22.0  39d 170
2023 06 07 16  17 20 38.214   +14 18 22.52  .12470 1.1165 142.6 22.0  39d 170
2023 06 07 17  17 20 31.090   +14 18 11.88  .12480 1.1166 142.6 22.0  39d 170
2023 06 07 18  17 20 23.976   +14 18 01.13  .12490 1.1167 142.7 22.0  40d 170
2023 06 07 19  17 20 16.872   +14 17 50.27  .12500 1.1168 142.7 22.0  40d 170
2023 06 07 20  17 20 09.779   +14 17 39.28  .12509 1.1169 142.7 22.0  40d 170
2023 06 07 21  17 20 02.695   +14 17 28.18  .12519 1.1170 142.7 22.0  40d 170
2023 06 07 22  17 19 55.622   +14 17 16.96  .12529 1.1171 142.7 22.0  40d 170
2023 06 07 23  17 19 48.558   +14 17 05.63  .12539 1.1172 142.7 22.0  40d 170
2023 06 08 00  17 19 41.505   +14 16 54.18  .12549 1.1173 142.7 22.0  40d 170
2023 06 08 01  17 19 34.462   +14 16 42.62  .12559 1.1174 142.7 22.0  40d 170
2023 06 08 02  17 19 27.428   +14 16 30.94  .12569 1.1175 142.7 22.0  40d 170
2023 06 08 03  17 19 20.405   +14 16 19.14  .12579 1.1176 142.7 22.0  40d 170
2023 06 08 04  17 19 13.392   +14 16 07.23  .12589 1.1177 142.7 22.0  40d 170
2023 06 08 05  17 19 06.389   +14 15 55.20  .12599 1.1178 142.7 22.0  40d 170
2023 06 08 06  17 18 59.396   +14 15 43.06  .12609 1.1179 142.7 22.0  40d 170
2023 06 08 07  17 18 52.413   +14 15 30.81  .12618 1.1180 142.7 22.0  40d 170
2023 06 08 08  17 18 45.440   +14 15 18.44  .12628 1.1181 142.8 22.0  40d 170
2023 06 08 09  17 18 38.477   +14 15 05.95  .12638 1.1182 142.8 22.0  40d 170
2023 06 08 10  17 18 31.525   +14 14 53.36  .12648 1.1183 142.8 22.0  40d 170
2023 06 08 11  17 18 24.582   +14 14 40.65  .12658 1.1184 142.8 22.0  40d 170
2023 06 08 12  17 18 17.649   +14 14 27.82  .12668 1.1184 142.8 22.0  40d 170
2023 06 08 13  17 18 10.727   +14 14 14.88  .12678 1.1185 142.8 22.0  40d 170
2023 06 08 14  17 18 03.814   +14 14 01.83  .12688 1.1186 142.8 22.0  40d 170
2023 06 08 15  17 17 56.912   +14 13 48.67  .12698 1.1187 142.8 22.0  40d 170
2023 06 08 16  17 17 50.019   +14 13 35.39  .12708 1.1188 142.8 22.0  40d 170
2023 06 08 17  17 17 43.137   +14 13 22.00  .12719 1.1189 142.8 22.0  40d 170
2023 06 08 18  17 17 36.265   +14 13 08.50  .12729 1.1190 142.8 22.0  40d 170
2023 06 08 19  17 17 29.403   +14 12 54.88  .12739 1.1191 142.8 22.0  40d 170
2023 06 08 20  17 17 22.551   +14 12 41.16  .12749 1.1192 142.8 22.0  40d 170
2023 06 08 21  17 17 15.709   +14 12 27.32  .12759 1.1193 142.8 22.0  40d 170
2023 06 08 22  17 17 08.877   +14 12 13.37  .12769 1.1194 142.8 22.0  40d 170
2023 06 08 23  17 17 02.055   +14 11 59.31  .12779 1.1195 142.8 22.0  40d 170
2023 06 09 00  17 16 55.243   +14 11 45.13  .12789 1.1196 142.9 22.0  40d 170
2023 06 09 01  17 16 48.442   +14 11 30.85  .12799 1.1197 142.9 22.0  40d 170
2023 06 09 02  17 16 41.650   +14 11 16.45  .12809 1.1198 142.9 22.0  40d 170